Location: Handeloh
(53.2500°N, 9.8330°E)
Time: 11:35:22
(UTC+01:00)

S-56A Canister/Altair - Pass Details

Date: 22 November 2019
Orbit: 633 x 2500 km, 38.9° (Epoch: 08 December)

Event Time Altitude Azimuth Distance (km) Brightness Sun altitude
Rises 18:51:50 0° 252° (WSW) 4,981 13.0 -22.7°
Reaches altitude 10° 18:56:09 10° 242° (WSW) 3,645 11.9 -23.4°
Maximum altitude 19:03:04 26° 191° (S) 2,092 9.8 -24.4°
Enters shadow 19:05:59 20° 155° (SSE) 2,191 9.6 -24.8°
Drops below altitude 10° 19:08:11 10° 136° (SE) 2,631 - -25.2°
Sets 19:10:46 0° 123° (ESE) 3,374 - -25.5°
